Regional Weather Roundup
Issued by NWS

Home | Current Version | Previous Version | Text Only | Print | Product List | Glossary Off
Versions: 1 2 3 4 5 6 7 8 9 10 11 12 13 14 15 16 17 18 19 20 21 22 23 24 25 26 27 28 29 30 31 32 33 34 35 36 37 38 39 40 41 42 43 44 45 46 47 48 49 50

000
ASUS43 KMPX 252201
RWRMN
WEATHER ROUNDUP FOR MINNESOTA
NATIONAL WEATHER SERVICE TWIN CITIES/CHANHASSEN MN
500 PM CDT WED APR 25 2018


NOTE: "FAIR" INDICATES FEW OR NO CLOUDS BELOW 12,000 FEET WITH NO
SIGNIFICANT WEATHER AND/OR OBSTRUCTIONS TO VISIBILITY. N/A MEANS
CURRENT SKY AND/OR WEATHER CONDITIONS ARE NOT AVAILABLE.

MNZ060>063-068>070-252300-
   Twin Cities Metro

CITY           SKY/WX    TMP DP  RH WIND       PRES   REMARKS
TWIN CITIES    FAIR      59  25  27 VRB3      30.06F
ST PAUL        FAIR      60  20  21 W3        30.06F
CRYSTAL        FAIR      58  24  27 VRB5      30.05F
BLAINE         SUNNY     61  19  20 VRB5      30.06F
LAKEVILLE      FAIR      57  27  30 SW5       30.06F
EDEN PRAIRIE   FAIR      58  25  28 SW8       30.06F
SOUTH ST PAUL  FAIR      59  22  24 NW5       30.05F
LAKE ELMO      FAIR      57  23  26 CALM      30.07F
$$
MNZ001>005-007-008-013>017-022>024-027-028-252300-
   Northwest Minnesota

CITY           SKY/WX    TMP DP  RH WIND       PRES   REMARKS
BEMIDJI        FAIR      58  26  28 SW12G18   29.95F
HALLOCK        FAIR      66  21  18 S28G37    29.80F
ROSEAU         FAIR      61  39  44 SW23G31   29.85F
WARROAD        FAIR      61  39  44 SW16G29   29.86F
THIEF RVR FALL FAIR      61  34  36 SW23G29   29.90F
CROOKSTON      FAIR      63  34  34 SW24G30   29.90F
FOSSTON        FAIR      59  30  33 S22       29.95F
DETROIT LAKES  FAIR      59  32  36 SW13G21   29.99F
MOORHEAD       FAIR      63  30  29 SW18G25   29.96F
PARK RAPIDS    FAIR      59  28  30 SW14G23   29.98F
MAHNOMEN       FAIR      60  33  35 SW20G26   29.95F
$$
MNZ006-009>011-018-025>026-252300-
   North Central Minnesota

CITY           SKY/WX    TMP DP  RH WIND       PRES   REMARKS
BAUDETTE       FAIR      60  34  37 SW18G28   29.88F
FLAG ISLAND    FAIR      54  30  40 S14G22    29.83F
INTL FALLS     FAIR      61  26  26 SW14G21   29.90F
WASKISH        CLOUDY    52  32  46 SW12      29.93F
BIG FORK       FAIR      59  28  31 SW9G17    29.96F
LONGVILLE      FAIR      59  25  27 SW8       29.99F
GRAND RAPIDS   FAIR      58  24  27 SW9G16    30.00F
CRANE LAKE     FAIR      59  21  23 SW7       29.97S
ORR            FAIR     N/A N/A N/A SW7G17    29.93F
COOK           FAIR      61  25  25 SW9       29.97F
WALKER         FAIR      57  27  30 SW14      29.97F
$$
MNZ012-019>021-037-252300-
   Northeast Minnesota

CITY           SKY/WX    TMP DP  RH WIND       PRES   REMARKS
DULUTH         FAIR      57  22  25 S8        29.99F
ELY            FAIR      57  21  24 SW10      29.95F
HIBBING        FAIR      58  24  27 SW12G17   29.98F
EVELETH        FAIR      58  25  27 SW12G17   29.98F
DULUTH HARBOR  FAIR      39  32  75 CALM      30.02F
TWO HARBORS    FAIR      57  32  38 S9G16     29.99F
SILVER BAY     FAIR      52  25  35 S8G16     29.99F
GRAND MARAIS     N/A     38  31  76 SW8       30.04F
G MARAIS ARPRT FAIR      39  18  41 S8        30.00F
$$
MNZ029>031-032-039>041-046>048-054>057-064-252300-
   West Central Minnesota

CITY           SKY/WX    TMP DP  RH WIND       PRES   REMARKS
FERGUS FALLS   FAIR      61  34  36 SW12G18   29.98F
WHEATON        CLOUDY    63  27  25 SW10      30.03F
MORRIS         SUNNY     59  34  38 S7        30.03F
ALEXANDRIA     FAIR      59  29  31 S13       30.04F
ELBOW LAKE     FAIR      58  32  37 SW12      30.02F
WADENA         FAIR      57  30  35 W8        30.01F
GLENWOOD       FAIR      57  28  33 W8        30.05F
APPLETON       SUNNY     61  27  27 S9        30.04F
BENSON         SUNNY     57  27  30 SW9       30.07F
ORTONVILLE     SUNNY     61  28  29 SW10G16   30.03F
WILLMAR        FAIR      55  34  44 SW8       30.09F
$$
MNZ033>034-036-042>043-049>051-058-059-252300-
   Central Minnesota

CITY           SKY/WX    TMP DP  RH WIND       PRES   REMARKS
ST CLOUD       FAIR      57  21  24 SW7       30.04F
SAUK CENTRE    FAIR      56  29  34 SW9       30.05F
PAYNESVILLE    FAIR      56  26  31 SW6       30.06F
AITKIN         FAIR      57  25  28 S10G16    30.00F
PINE RIVER     FAIR      55  28  35 SW5G17    30.03F
BRAINERD       FAIR      60  24  25 W13       30.02F
STAPLES        FAIR      57  25  28 S10       30.02F
LONG PRAIRIE   FAIR      55  28  35 SW9       30.05F
LITTLE FALLS   FAIR      55  12  18 SW6       30.05F
LITCHFIELD     FAIR      57  28  33 W5        30.06F
BUFFALO        FAIR      56  26  31 CALM      30.06F
MAPLE LAKE     FAIR      58  31  35 SW6       30.06F
HUTCHINSON     FAIR      56  35  43 CALM      30.08F
$$
MNZ037-044-045-052-053-252300-
   East Central Minnesota

CITY           SKY/WX    TMP DP  RH WIND       PRES   REMARKS
PRINCETON      FAIR      61  21  21 SW8       30.05F
MORA           FAIR      55  27  33 SW7       30.06F
CAMBRIDGE      FAIR      61  36  39 S5        30.05F
RUSH CITY      FAIR      57  25  29 W5        30.05F
MOOSE LAKE     FAIR      59  25  27 SW9       30.00F
HINCKLEY       FAIR      59  28  31 SW5       30.03F
CLOQUET        FAIR      57  12  17 S8        30.00F
MCGREGOR       FAIR      55  27  33 S7        30.02F
$$
MNZ071>073-080-081-089-090-097-098-252300-
   Southwest Minnesota

CITY           SKY/WX    TMP DP  RH WIND       PRES   REMARKS
MONTEVIDEO     SUNNY     61  30  31 W8        30.07F
GRANITE FALLS  SUNNY     58  34  39 S7        30.09F
CANBY          SUNNY     59  28  30 SW9       30.06F
MARSHALL       SUNNY     58  30  34 W7        30.08F
REDWOOD FALLS  SUNNY     55  33  43 S9        30.07F
OLIVIA         SUNNY     55  32  41 SW6       30.06F
PIPESTONE      SUNNY    N/A N/A N/A W7        30.07F
WINDOM         SUNNY     55  28  35 NW5       30.09F
WORTHINGTON    SUNNY     57  29  34 NW7       30.09F
JACKSON        SUNNY     54  32  43 W8        30.09F
TRACY          SUNNY     56  33  41 SW7       30.07F
SLAYTON        SUNNY     55  31  39 W5        30.10F
$$
MNZ065>067-074>077-082>085-091>093-252300-
   South Central Minnesota

CITY           SKY/WX    TMP DP  RH WIND       PRES   REMARKS
MANKATO        FAIR      56  33  42 N7        30.08F
NEW ULM        SUNNY     55  30  38 CALM      30.08F
ST JAMES       SUNNY     55  36  47 NW6       30.10F
FAIRMONT       SUNNY     55  35  47 CALM      30.09F
GLENCOE        FAIR      56  33  40 SW7       30.07F
OWATONNA       FAIR      57  30  35 NW5       30.06F
WASECA         FAIR      55  32  41 W3        30.08F
ALBERT LEA     FAIR      57  28  33 NW5       30.07F
$$
MNZ078>079-086>088-094>096-252300-
   Southeast Minnesota

CITY           SKY/WX    TMP DP  RH WIND       PRES   REMARKS
ROCHESTER      FAIR      59  31  34 W7        30.07F
RED WING       FAIR      61  19  20 SW10      30.04F
STANTON        FAIR      59  26  28 W5        30.04F
DODGE CENTER   FAIR      55  30  38 N6        30.06F
WINONA         FAIR      59  30  33 NW6       30.02F
AUSTIN         FAIR      57  28  33 CALM      30.06F
PRESTON        FAIR      56  26  30 N8        30.05F
$$
ABBREVIATIONS USED IN REMARKS
   TC - TEMPERATURES IN CELSIUS
  WCI - WIND CHILL INDEX
   HX - HEAT INDEX
  VSB - VISIBILITY
$$




USA.gov is the U.S. government's official web portal to all federal, state and local government web resources and services.